1496142000.24,35308,21.94,74264.5,12.95,7.33,7.61,0,*48
1496142001.47,35309,21.94,74264.3,12.97,7.05,7.15,0,*4D
1496142002.67,35310,21.94,74264.3,12.95,7.01,7.11,0,*47
1496142003.92,35311,21.94,74264.0,12.91,6.57,6.69,0,*4E
1496142005.15,35312,21.94,74266.5,12.91,6.75,6.91,0,*4A
1496142006.39,35313,21.94,74266.8,12.91,7.19,7.29,0,*42
1496142007.57,35314,21.94,74270.0,12.89,7.05,7.05,0,*4F
1496142008.82,35315,21.88,74266.3,12.91,7.19,7.19,0,*47
1496142010.01,35316,21.94,74264.0,12.89,6.97,6.97,0,*4D
1496142011.22,35317,21.88,74262.0,12.89,7.15,7.09,0,*41
1496142012.45,35318,21.94,74264.3,12.89,7.19,7.27,0,*4E
1496142013.66,35319,21.94,74262.3,12.89,7.27,7.41,0,*42
1496142014.84,35320,21.94,74262.0,12.89,7.45,7.55,0,*49
1496142016.03,35321,21.94,74262.3,12.89,7.29,7.45,0,*43
1496142017.28,35322,21.94,74266.0,12.87,7.15,7.19,0,*48
1496142018.49,35323,21.94,74264.5,12.87,7.51,7.55,0,*41
1496142019.74,35324,21.94,74266.8,12.87,7.65,7.73,0,*45
1496142020.99,35325,21.94,74266.8,12.89,7.61,7.73,0,*4E
1496142022.22,35326,21.94,74270.3,12.89,7.65,7.65,0,*4E
1496142023.42,35327,21.88,74266.0,12.91,7.45,7.55,0,*47
1496142024.62,35328,21.94,74270.8,12.87,7.45,7.55,0,*4F
1496142025.85,35329,21.94,74270.3,12.87,7.19,7.09,0,*4E
1496142027.05,35330,21.88,74266.0,12.87,7.05,7.05,0,*47
1496142028.28,35331,21.94,74268.5,12.87,7.27,7.45,0,*42
1496142029.48,35332,21.94,74270.8,12.87,7.45,7.55,0,*44
1496142030.69,35333,21.94,74270.3,12.87,7.29,7.41,0,*4A
1496142031.92,35334,21.94,74272.0,12.87,7.55,7.65,0,*40
1496142033.15,35335,21.94,74272.0,12.87,7.51,7.61,0,*41
1496142034.41,35336,21.94,74270.5,12.87,7.73,7.73,0,*41
1496142035.66,35337,21.94,74276.8,12.87,7.73,7.83,0,*4F
1496142036.89,35338,21.94,74274.3,12.87,7.87,8.01,0,*4E
1496142038.12,35339,21.94,74272.8,12.89,7.83,7.87,0,*44
1496142039.33,35340,21.94,74274.8,12.91,7.55,7.55,0,*47
1496142040.58,35341,21.94,74276.8,12.87,7.65,7.87,0,*4D
1496142041.79,35342,21.94,74272.0,12.89,7.45,7.65,0,*4E
1496142042.99,35343,21.94,74270.0,12.89,7.19,7.41,0,*40
1496142044.18,35344,21.94,74272.8,12.89,6.75,6.97,0,*46
1496142045.41,35345,21.94,74272.5,12.89,6.65,6.87,0,*47
1496142046.62,35346,21.94,74274.5,12.89,6.87,7.05,0,*43
1496142047.85,35347,21.94,74274.3,12.89,6.91,7.19,0,*48
1496142049.11,35348,21.94,74276.8,12.91,6.87,7.23,0,*40
1496142050.37,35349,21.94,74276.3,12.91,6.43,6.87,0,*46
1496142051.54,35350,21.94,74276.3,12.89,5.45,5.95,0,*42
1496142052.79,35351,21.94,74276.0,12.91,6.17,6.69,0,*4E
1496142054.05,35352,21.94,74278.5,12.91,6.87,7.47,0,*49
1496142055.3,35353,21.94,74276.0,12.91,7.11,7.65,0,*46
1496142056.53,35354,21.94,74276.0,12.91,6.51,7.01,0,*46
1496142057.76,35355,21.94,74276.8,12.91,6.51,7.01,0,*47
1496142059.0,35356,21.94,74278.0,12.91,6.65,7.29,0,*49
1496142060.2,35357,21.94,74280.8,12.91,6.79,7.45,0,*4F
1496142061.45,35358,21.94,74278.0,12.91,6.91,7.47,0,*44
1496142062.66,35359,21.94,74278.0,12.95,6.91,7.41,0,*47
1496142063.87,35360,21.94,74274.8,12.97,7.37,8.01,0,*49
1496142065.09,35361,21.94,74278.0,12.95,7.23,7.79,0,*4F
1496142066.33,35362,21.94,74270.8,12.97,6.93,7.61,0,*4D
1496142067.54,35363,21.94,74276.8,12.97,7.33,8.05,0,*4A
1496142068.78,35364,21.94,74272.8,12.99,7.15,7.87,0,*42
1496142070.01,35365,21.94,74276.5,12.99,7.15,7.83,0,*47
1496142071.2,35366,21.94,74272.5,12.99,6.83,7.45,0,*40
1496142072.44,35367,21.94,74278.3,13.01,7.27,7.97,0,*41
1496142073.65,35368,21.94,74278.5,13.01,7.37,8.09,0,*47
1496142074.85,35369,21.94,74280.0,13.03,7.59,8.33,0,*45
1496142076.04,35370,21.94,74278.8,13.03,7.55,8.23,0,*40
1496142077.28,35371,21.94,74278.5,13.03,7.23,7.87,0,*41
1496142078.48,35372,21.94,74276.8,13.07,7.37,7.91,0,*44
1496142079.69,35373,21.94,74276.0,13.07,7.51,8.13,0,*40
1496142080.93,35374,21.94,74274.0,13.07,7.27,7.83,0,*40
1496142082.17,35375,21.94,74276.3,13.05,7.47,8.01,0,*40
1496142083.4,35376,21.94,74276.8,13.05,7.37,7.83,0,*41
1496142084.66,35377,21.94,74276.5,13.05,7.47,7.95,0,*40
1496142085.9,35378,21.94,74278.8,13.07,7.95,8.41,0,*44
1496142087.11,35379,21.94,74278.0,13.07,8.01,8.37,0,*46
1496142088.35,35380,21.94,74274.0,13.09,7.61,8.05,0,*46
1496142089.58,35381,21.94,74272.3,13.09,7.87,8.23,0,*4B
1496142090.77,35382,21.94,74274.0,13.07,7.51,8.05,0,*49
1496142092.04,35383,21.94,74272.8,13.09,7.61,7.95,0,*43
1496142093.28,35384,21.94,74276.0,13.09,7.77,8.05,0,*45
1496142094.49,35385,21.94,74274.5,13.11,7.45,7.69,0,*49
1496142095.72,35386,21.94,74274.0,13.11,7.87,8.13,0,*46
1496142096.92,35387,21.94,74276.5,13.11,7.87,8.09,0,*4C
1496142098.13,35388,21.94,74278.5,13.11,7.87,8.01,0,*4B
1496142099.33,35389,21.94,74274.5,13.17,8.05,8.23,0,*49
1496142100.56,35390,21.94,74274.5,13.13,8.01,8.13,0,*42
1496142101.8,35391,21.94,74276.8,13.13,8.01,8.13,0,*43
1496142103.03,35392,21.94,74274.3,13.17,7.95,8.05,0,*41
1496142104.26,35393,21.94,74274.5,13.17,8.01,8.13,0,*45
1496142105.49,35394,21.94,74274.8,13.17,7.95,8.05,0,*47
1496142106.67,35395,21.94,74272.8,13.19,8.05,8.15,0,*4F
1496142107.87,35396,21.94,74276.0,13.17,8.05,8.27,0,*43
1496142109.1,35397,21.94,74274.8,13.19,7.77,7.87,0,*43
1496142110.3,35398,21.94,74272.3,13.19,7.59,7.65,0,*4C
1496142111.54,35399,21.94,74278.3,13.19,7.77,7.77,0,*42
1496142112.74,35400,21.94,74276.0,13.19,7.95,7.97,0,*47
1496142113.97,35401,21.94,74278.0,13.19,7.83,7.73,0,*4B
1496142115.23,35402,21.94,74278.0,13.21,7.19,7.19,0,*4C
1496142116.46,35403,21.94,74276.8,13.21,7.41,7.27,0,*4D
1496142117.63,35404,21.94,74278.3,13.19,7.51,7.41,0,*40
1496142118.84,35405,21.94,74274.8,13.19,7.47,7.37,0,*47
1496142120.04,35406,21.94,74278.3,13.19,7.47,7.29,0,*4B
1496142121.21,35407,21.94,74276.8,13.19,8.05,7.97,0,*46
1496142122.39,35408,21.94,74276.5,13.19,8.05,7.97,0,*49
1496142123.62,35409,21.94,74278.3,13.21,7.61,7.37,0,*44
1496142124.86,35410,21.94,74278.0,13.21,7.27,6.97,0,*45
1496142126.09,35411,21.94,74278.3,13.21,6.97,6.73,0,*44
1496142127.29,35412,21.94,74282.0,13.19,7.65,7.41,0,*40
1496142128.49,35413,21.94,74278.3,13.19,7.65,7.37,0,*40
1496142129.72,35414,21.94,74276.3,13.21,7.97,7.77,0,*45
1496142130.93,35415,21.94,74282.0,13.23,8.37,8.19,0,*44
1496142132.13,35416,21.94,74282.5,13.25,8.29,8.09,0,*4F
1496142133.34,35417,21.94,74276.8,13.23,7.77,7.45,0,*4B
1496142134.54,35418,21.94,74278.8,13.23,7.41,7.11,0,*40
1496142135.75,35419,21.94,74278.5,13.23,7.45,7.11,0,*45
1496142136.93,35420,21.94,74278.8,13.25,7.97,7.79,0,*48
1496142138.17,35421,21.94,74276.8,13.25,7.91,7.61,0,*46
1496142139.4,35422,21.94,74276.8,13.27,8.13,7.79,0,*4B
1496142140.65,35423,21.94,74276.8,13.27,8.13,7.83,0,*4F
1496142141.84,35424,21.94,74278.8,13.29,8.19,7.97,0,*49
1496142143.05,35425,21.94,74276.5,13.31,8.23,8.09,0,*40
1496142144.31,35426,21.94,74278.0,13.31,8.29,8.13,0,*42
1496142145.52,35427,21.94,74278.5,13.33,8.23,8.13,0,*4B
1496142146.77,35428,21.94,74278.0,13.35,7.77,7.47,0,*42
1496142147.98,35429,21.94,74278.0,13.33,7.29,7.23,0,*4C
1496142149.18,35430,21.94,74274.8,13.37,7.69,7.59,0,*49
1496142150.41,35431,21.94,74276.0,13.37,7.65,7.77,0,*48
1496142151.64,35432,21.94,74278.5,13.35,7.59,7.65,0,*45
1496142152.84,35433,21.94,74276.8,13.37,7.59,7.83,0,*4E
1496142154.08,35434,21.94,74274.3,13.41,7.61,7.87,0,*47
1496142155.26,35435,21.94,74272.8,13.41,6.93,7.09,0,*4C
1496142156.47,35436,21.94,74270.8,13.41,7.27,7.51,0,*4C
1496142157.71,35437,21.94,74272.3,13.41,7.47,7.73,0,*4B
1496142158.91,35438,21.94,74272.8,13.45,7.41,7.73,0,*46
1496142160.12,35439,21.94,74274.0,13.45,7.11,7.51,0,*42
1496142161.36,35440,21.94,74272.8,13.45,7.23,7.61,0,*4E
1496142162.55,35441,21.94,74274.3,13.45,6.93,7.29,0,*49
1496142163.75,35442,21.94,74276.0,13.47,7.37,7.79,0,*42
1496142164.99,35443,21.94,74274.0,13.49,7.27,7.61,0,*45
1496142166.19,35444,21.94,74280.0,13.49,6.91,7.37,0,*4D
1496142167.4,35445,21.94,74276.8,13.49,7.11,7.59,0,*4D
1496142168.6,35446,21.94,74278.8,13.49,7.11,7.41,0,*47
1496142169.83,35447,21.94,74278.5,13.49,6.13,6.35,0,*47
1496142171.04,35448,21.94,74278.8,13.49,6.11,6.35,0,*4A
1496142172.26,35449,21.94,74278.0,13.49,6.21,6.47,0,*4D
1496142173.43,35450,21.94,74280.5,13.49,6.83,7.05,0,*4A
1496142174.65,35451,21.94,74282.8,13.51,7.01,7.15,0,*48
1496142175.86,35452,21.94,74286.8,13.49,7.27,7.37,0,*46
1496142177.09,35453,21.94,74284.0,13.51,7.19,7.37,0,*43
1496142178.31,35454,21.94,74278.5,13.51,7.29,7.47,0,*40
1496142179.52,35455,21.94,74272.8,13.51,7.37,7.51,0,*49
1496142180.75,35456,21.94,74276.3,13.55,7.77,7.79,0,*40
1496142181.97,35457,21.94,74276.5,13.57,7.79,7.97,0,*4D
1496142183.22,35458,21.94,74278.3,13.57,7.65,7.65,0,*42
1496142184.48,35459,21.94,74278.8,13.55,5.89,5.89,0,*41
1496142185.72,35460,21.94,74272.3,13.55,5.89,5.99,0,*4A
1496142186.97,35461,21.94,74268.0,13.55,6.87,6.87,0,*4A
1496142188.2,35462,21.94,74268.0,13.55,7.47,7.37,0,*4E
1496142189.44,35463,21.94,74270.8,13.57,7.55,7.47,0,*49
1496142190.67,35464,21.94,74274.0,13.57,7.69,7.55,0,*42
1496142191.91,35465,21.94,74270.0,13.57,7.97,7.77,0,*42
1496142193.14,35466,21.94,74272.0,13.57,7.65,7.45,0,*4D
1496142194.37,35467,21.94,74270.3,13.59,6.91,6.61,0,*4F
1496142195.57,35468,21.94,74272.0,13.59,6.93,6.57,0,*47
1496142196.78,35469,21.94,74276.0,13.59,7.23,6.93,0,*44
1496142197.99,35470,21.94,74276.8,13.59,7.29,7.11,0,*4D
1496142199.2,35471,21.94,74274.5,13.59,6.93,6.69,0,*42
1496142200.4,35472,21.94,74278.0,13.63,7.15,7.09,0,*40
1496142201.63,35473,21.94,74276.3,13.63,6.61,6.57,0,*49
1496142202.87,35474,21.94,74282.3,13.63,6.43,6.47,0,*4F
1496142204.12,35475,21.94,74284.5,13.59,6.35,6.43,0,*42
1496142205.35,35476,21.94,74268.5,13.63,6.39,6.47,0,*40
1496142206.59,35477,21.94,74268.0,13.65,6.61,6.75,0,*4B
1496142207.85,35478,21.94,74274.5,13.65,6.51,6.73,0,*41
1496142209.09,35479,21.94,74276.8,13.65,6.61,6.93,0,*4D
1496142210.29,35480,21.94,74282.0,13.67,6.91,7.33,0,*4D
1496142211.53,35481,21.94,74276.3,13.69,6.33,6.73,0,*4F
1496142212.79,35482,21.94,74276.0,13.69,6.65,7.15,0,*4E
1496142213.99,35483,21.94,74274.5,13.71,6.69,7.33,0,*4E
1496142215.2,35484,21.94,74272.8,13.71,6.33,7.11,0,*46
1496142216.41,35485,21.94,74272.8,13.73,6.07,6.97,0,*4D
1496142217.65,35486,21.94,74270.8,13.75,5.81,6.87,0,*44
1496142218.91,35487,21.94,74276.0,13.77,5.85,7.19,0,*45
1496142220.14,35488,21.94,74274.0,13.81,6.07,7.61,0,*45
1496142221.38,35489,21.94,74278.5,13.85,6.57,8.09,0,*44
1496142222.58,35490,21.94,74276.8,13.87,6.39,7.97,0,*4E
1496142223.8,35491,21.94,74274.5,13.89,6.35,8.05,0,*49
1496142225.01,35492,21.94,74272.0,13.93,6.13,7.97,0,*41
1496142226.25,35493,21.94,74276.8,13.93,5.81,7.73,0,*42
1496142227.43,35494,21.94,74276.3,13.97,5.49,7.41,0,*44
1496142228.66,35495,21.94,74274.5,13.95,4.93,6.97,0,*4B
1496142229.87,35496,21.94,74272.3,13.95,5.11,7.09,0,*45
1496142231.05,35497,21.94,74276.3,13.97,5.59,7.55,0,*43
1496142232.22,35498,21.94,74276.3,13.97,5.49,7.45,0,*4C
1496142233.44,35499,21.94,74276.3,13.99,5.27,7.37,0,*4E
1496142234.64,35500,21.94,74278.8,14.01,4.67,7.01,0,*49
1496142235.88,35501,21.94,74286.0,13.99,4.33,6.87,0,*40
1496142237.07,35502,21.94,74290.8,14.01,3.85,6.69,0,*4F
1496142238.29,35503,21.94,74286.3,14.01,3.15,5.99,0,*4B
1496142239.53,35504,21.94,74282.8,14.01,3.67,6.43,0,*4D
1496142240.76,35505,21.94,74278.0,13.99,4.33,6.87,0,*44
1496142241.96,35506,21.94,74278.3,14.01,5.15,7.47,0,*49
1496142243.16,35507,21.94,74278.3,14.01,5.73,7.55,0,*4B
1496142244.37,35508,21.94,74276.0,14.01,5.95,7.47,0,*4F
1496142245.58,35509,21.94,74274.8,14.05,6.35,7.55,0,*40
1496142246.82,35510,21.94,74276.0,14.05,6.87,7.73,0,*45
1496142248.05,35511,21.94,74278.0,14.05,7.19,7.91,0,*4E
1496142249.3,35512,21.94,74276.8,14.03,6.61,7.19,0,*45
1496142250.53,35513,21.94,74282.5,14.05,6.61,7.11,0,*4A
1496142251.72,35514,21.94,74276.0,14.05,6.97,7.55,0,*44
1496142252.95,35515,21.94,74278.3,14.03,7.09,7.47,0,*46
1496142254.16,35516,21.94,74278.0,14.05,7.29,7.65,0,*41
1496142255.36,35517,21.94,74276.8,14.05,6.87,7.05,0,*43
1496142256.59,35518,21.94,74278.5,14.03,6.47,6.79,0,*4C
1496142257.79,35519,21.94,74276.8,14.03,5.59,5.71,0,*4A
1496142258.99,35520,21.94,74278.3,14.03,6.11,6.33,0,*4A
1496142260.23,35521,21.94,74280.5,14.05,6.51,6.73,0,*4D
1496142261.46,35522,21.94,74278.3,14.03,6.21,6.47,0,*48
1496142262.7,35523,21.94,74280.3,14.01,6.35,6.57,0,*4F
1496142263.95,35524,21.94,74278.8,13.99,6.65,6.57,0,*4B
1496142265.18,35525,21.94,74282.0,13.99,6.53,6.33,0,*4D
1496142266.45,35526,21.94,74280.0,13.99,6.65,6.43,0,*4C
1496142267.67,35527,21.94,74278.5,13.99,6.69,6.29,0,*4D
1496142268.91,35528,21.94,74280.5,13.99,6.53,5.99,0,*43
1496142270.14,35529,21.94,74282.0,13.99,6.75,6.17,0,*43
1496142271.37,35530,21.94,74282.0,13.99,5.99,5.27,0,*4A
1496142272.64,35531,21.94,74280.3,13.95,5.73,5.01,0,*47
1496142273.85,35532,21.94,74280.5,13.97,6.07,5.27,0,*42
1496142275.05,35533,21.94,74286.8,13.99,6.11,5.29,0,*44
1496142276.29,35534,21.94,74280.5,13.95,5.71,4.79,0,*4E
1496142277.5,35535,21.94,74280.0,13.97,5.63,4.67,0,*41
1496142278.68,35536,21.94,74282.8,13.97,5.95,5.15,0,*4F
1496142279.89,35537,21.94,74282.5,13.97,5.93,5.37,0,*48
1496142281.1,35538,21.94,74284.8,13.97,5.93,5.45,0,*42
1496142282.31,35539,21.94,74286.3,14.01,5.41,5.05,0,*40
1496142283.51,35540,21.94,74282.8,14.01,5.77,5.63,0,*4B
1496142284.72,35541,21.94,74284.3,14.01,5.15,5.05,0,*4E
1496142285.95,35542,21.94,74284.8,14.03,4.81,5.01,0,*47
1496142287.15,35543,21.94,74282.3,14.05,5.45,5.81,0,*41
1496142288.35,35544,21.94,74286.5,14.05,5.63,6.17,0,*4E
1496142289.57,35545,21.94,74280.5,14.11,5.77,6.33,0,*49
1496142290.77,35546,21.94,74286.0,14.11,5.59,6.21,0,*45
1496142291.95,35547,21.94,74282.3,14.13,5.29,5.99,0,*41
1496142293.18,35548,21.94,74286.8,14.15,5.01,5.99,0,*42
1496142294.4,35549,21.94,74280.5,14.15,5.45,6.61,0,*47
1496142295.59,35550,21.94,74286.8,14.19,5.59,7.01,0,*49
1496142296.76,35551,21.94,74284.8,14.23,5.29,7.01,0,*46
1496142297.93,35552,21.94,74288.0,14.23,4.49,6.33,0,*42
1496142299.17,35553,21.94,74288.8,14.27,3.71,5.55,0,*48
1496142300.41,35554,21.94,74286.3,14.27,2.77,4.79,0,*47
1496142301.62,35555,21.94,74284.3,14.27,2.77,5.11,0,*49
1496142302.83,35556,21.94,74282.8,14.31,2.69,5.29,0,*49
1496142304.06,35557,21.94,74280.5,14.33,2.59,5.45,0,*43
1496142305.26,35558,21.94,74282.0,14.35,1.89,5.29,0,*4E
1496142306.49,35559,21.94,74284.0,14.35,1.89,5.55,0,*44
1496142307.7,35560,21.94,74286.5,14.39,2.09,5.99,0,*49
1496142308.93,35561,21.94,74290.3,14.37,1.89,6.07,0,*49
1496142310.19,35562,21.94,74286.8,14.37,1.67,5.89,0,*4F
1496142311.44,35563,21.94,74284.0,14.41,1.59,6.17,0,*46
1496142312.66,35564,21.94,74284.5,14.41,0.75,5.49,0,*76
1496142313.89,35565,21.94,74288.0,14.41,0.97,5.93,0,*7C
1496142315.1,35566,21.94,74286.5,14.43,1.17,6.21,0,*4E
1496142316.36,35567,21.94,74286.3,14.45,1.21,6.17,0,*49
1496142317.6,35568,21.94,74288.8,14.45,0.67,5.81,0,*79
1496142318.83,35569,21.94,74286.0,14.45,0.75,5.99,0,*72
1496142320.03,35570,21.94,74286.3,14.49,0.97,6.29,0,*72
1496142321.23,35571,21.94,74280.3,14.49,0.97,6.33,0,*78
1496142322.44,35572,21.94,74282.0,14.53,0.79,5.95,0,*7F
1496142323.67,35573,21.94,74280.0,14.55,1.05,6.13,0,*4F
1496142324.92,35574,21.94,74282.8,14.53,1.29,6.47,0,*41
1496142326.15,35575,21.94,74280.5,14.55,1.67,6.75,0,*4D
1496142327.4,35576,21.94,74282.0,14.55,1.59,6.47,0,*42
1496142328.62,35577,21.94,74286.0,14.57,1.89,6.57,0,*4D
1496142329.86,35578,21.94,74284.8,14.59,1.25,5.71,0,*4D
1496142331.05,35579,21.94,74290.0,14.57,1.41,5.67,0,*47
1496142332.28,35580,21.94,74284.0,14.59,1.75,6.13,0,*48
1496142333.54,35581,21.94,74284.0,14.59,2.05,6.43,0,*48
1496142334.77,35582,21.94,74284.5,14.61,1.43,5.93,0,*4F
1496142336.03,35583,21.94,74284.5,14.59,1.09,5.93,0,*4B
1496142337.29,35584,21.94,74284.5,14.59,1.43,6.43,0,*4C
1496142338.55,35585,21.94,74284.5,14.59,1.21,6.13,0,*4C
1496142339.76,35586,21.94,74284.5,14.61,0.59,5.59,0,*77
1496142340.99,35587,21.94,74286.3,14.61,0.51,5.51,0,*76
1496142342.21,35588,21.94,74284.3,14.61,0.17,5.27,0,*7A
1496142343.42,35589,21.94,74290.3,14.63,1.01,5.95,0,*46
1496142344.62,35590,21.94,74284.5,14.65,0.95,5.67,0,*79
1496142345.86,35591,21.94,74284.5,14.61,1.09,5.81,0,*40
1496142347.12,35592,21.94,74286.3,14.63,1.13,5.55,0,*43
1496142348.35,35593,21.94,74282.8,14.63,0.87,5.41,0,*7B
1496142349.59,35594,21.94,74284.0,14.65,1.21,5.51,0,*46
1496142350.79,35595,21.94,74286.8,14.65,0.59,5.11,0,*7D
1496142351.99,35596,21.94,74288.0,14.65,0.33,4.85,0,*7E
1496142353.2,35597,21.94,74290.0,14.65,0.55,5.07,0,*74
1496142354.43,35598,21.94,74286.3,14.65,1.09,5.55,0,*44
1496142355.66,35599,21.94,74284.3,14.67,0.91,5.41,0,*72
1496142356.9,35600,22.0,74288.0,14.71,1.13,5.71,0,*4E
1496142358.16,35601,21.94,74284.5,14.71,1.21,5.73,0,*4C
1496142359.39,35602,21.94,74286.8,14.71,0.95,5.45,0,*74
1496142360.64,35603,21.94,74288.8,14.71,0.83,5.27,0,*76
1496142361.89,35604,21.94,74284.3,14.75,0.41,5.05,0,*7B
1496142363.11,35605,21.94,74288.0,14.77,1.21,6.03,0,*4A
1496142364.36,35606,21.94,74286.8,14.79,0.59,5.27,0,*7C
1496142365.57,35607,21.94,74288.8,14.79,-0.37,4.41,0,*59
1496142366.79,35608,21.94,74290.5,14.79,0.75,5.49,0,*74
1496142368.05,35609,21.94,74286.8,14.79,1.37,6.17,0,*4A
1496142369.26,35610,21.94,74288.0,14.81,1.83,6.35,0,*4A
1496142370.46,35611,21.94,74284.8,14.85,1.59,6.11,0,*4E
1496142371.69,35612,21.94,74286.5,14.85,2.09,6.57,0,*49
1496142372.92,35613,21.94,74288.0,14.87,2.01,6.33,0,*40
1496142374.15,35614,21.94,74284.5,14.89,2.39,6.73,0,*46
1496142375.38,35615,21.94,74288.0,14.93,2.43,6.65,0,*46
1496142376.59,35616,21.94,74286.5,14.93,2.25,6.33,0,*46
1496142377.8,35617,22.0,74288.8,14.99,2.91,6.97,0,*4C
1496142379.05,35618,21.94,74284.5,14.99,3.49,7.27,0,*4D
1496142380.26,35619,21.94,74288.8,15.03,3.29,6.79,0,*42
1496142381.52,35620,21.94,74288.0,15.07,3.67,7.11,0,*49
1496142382.7,35621,21.94,74288.5,15.09,4.15,7.41,0,*41
1496142383.9,35622,21.94,74284.8,15.11,4.33,7.33,0,*4A
1496142385.1,35623,21.94,74290.0,15.15,4.49,7.33,0,*42
1496142386.32,35624,21.94,74286.3,15.15,4.49,7.23,0,*44
1496142387.57,35625,21.94,74286.5,15.21,4.79,7.47,0,*43
1496142388.78,35626,21.94,74284.8,15.27,5.37,7.91,0,*46
1496142389.98,35627,21.94,74288.8,15.27,5.77,8.15,0,*40
1496142391.21,35628,21.94,74288.0,15.29,5.71,7.95,0,*40
1496142392.42,35629,21.94,74288.5,15.33,5.95,8.09,0,*4A
1496142393.62,35630,21.94,74286.5,15.37,5.95,8.05,0,*4A
1496142394.8,35631,21.94,74284.5,15.39,7.05,9.07,0,*4D
1496142396.01,35632,21.94,74284.8,15.43,7.61,9.43,0,*41
1496142397.22,35633,21.94,74284.5,15.47,8.05,9.77,0,*4E
1496142398.46,35634,21.94,74286.8,15.51,8.19,9.81,0,*4A
1496142399.7,35635,21.94,74286.3,15.55,8.13,9.67,0,*4D
1496142400.93,35636,22.0,74288.8,15.59,8.05,9.53,0,*42
1496142402.18,35637,21.94,74286.8,15.63,8.51,10.09,0,*7C
1496142403.41,35638,21.94,74286.8,15.67,8.23,9.89,0,*42
1496142404.61,35639,21.94,74286.3,15.69,8.01,9.61,0,*4B
1496142405.86,35640,21.94,74284.0,15.75,6.91,8.75,0,*4B
1496142407.06,35641,21.94,74284.5,15.77,6.69,8.61,0,*4A
1496142408.26,35642,21.94,74284.5,15.77,6.53,8.61,0,*40
1496142409.49,35643,21.94,74284.0,15.81,6.47,8.65,0,*49
1496142410.69,35644,21.94,74282.8,15.83,7.19,9.29,0,*4F
1496142411.92,35645,21.94,74284.3,15.85,7.11,9.25,0,*4C
1496142413.1,35646,21.94,74286.3,15.91,6.93,9.03,0,*45
1496142414.31,35647,21.94,74284.0,15.97,7.01,9.11,0,*4B
1496142415.52,35648,21.94,74286.3,15.99,6.47,8.61,0,*4F
1496142416.73,35649,21.94,74280.0,16.01,5.67,8.05,0,*4F
1496142417.96,35650,21.94,74280.5,16.03,6.61,8.93,0,*4F
1496142419.19,35651,21.94,74282.3,16.05,7.29,9.77,0,*4E
1496142420.39,35652,21.94,74278.8,16.11,7.97,10.57,0,*77
1496142421.64,35653,21.94,74280.3,16.17,7.51,10.19,0,*70
1496142422.87,35654,21.94,74280.5,16.21,8.75,11.81,0,*7B
1496142424.12,35655,21.94,74286.3,16.31,9.19,12.09,0,*73
1496142425.36,35656,21.94,74286.0,16.37,7.77,10.43,0,*7C
1496142426.6,35657,21.94,74286.0,16.41,4.97,8.01,0,*4E
1496142427.81,35658,22.0,74284.0,16.41,4.11,7.45,0,*40
1496142429.05,35659,21.94,74282.5,16.41,4.05,7.45,0,*44
1496142430.27,35660,21.94,74282.5,16.43,4.05,7.51,0,*49
1496142431.48,35661,21.94,74282.8,16.43,4.05,7.51,0,*48
1496142432.72,35662,21.94,74280.3,16.43,3.07,6.69,0,*44
1496142433.96,35663,21.94,74282.3,16.41,3.11,6.75,0,*4D
1496142435.19,35664,21.94,74284.3,16.39,2.81,6.53,0,*49
1496142436.41,35665,21.94,74284.5,16.39,2.69,6.53,0,*4E
1496142437.62,35666,21.94,74288.8,16.39,2.35,6.39,0,*48
1496142438.81,35667,21.94,74282.5,16.39,2.91,6.97,0,*43
1496142440.08,35668,21.94,74286.5,16.37,3.07,7.19,0,*4B
1496142441.32,35669,22.0,74286.5,16.37,3.03,7.29,0,*4D
1496142442.58,35670,21.94,74284.8,16.33,2.89,7.15,0,*4D
1496142443.79,35671,21.94,74282.5,16.37,2.95,7.45,0,*40
1496142445.02,35672,21.94,74284.0,16.37,3.03,7.55,0,*4C
1496142446.25,35673,21.94,74284.5,16.37,2.55,7.09,0,*46
1496142447.48,35674,21.94,74284.5,16.37,2.89,7.45,0,*48
1496142448.72,35675,21.94,74284.0,16.37,2.89,7.45,0,*49
1496142449.95,35676,21.94,74286.3,16.33,2.05,6.75,0,*48
1496142451.18,35677,21.94,74286.0,16.37,2.43,7.09,0,*45
1496142452.4,35678,21.94,74284.0,16.33,2.61,7.37,0,*43
1496142453.63,35679,21.94,74282.8,16.33,2.21,7.09,0,*4B
1496142454.87,35680,21.94,74284.5,16.37,2.43,7.29,0,*4F
1496142456.13,35681,22.0,74286.8,16.37,2.43,7.19,0,*4D
1496142457.37,35682,22.0,74284.5,16.33,2.05,6.83,0,*4A
1496142458.6,35683,21.94,74282.8,16.33,2.05,6.79,0,*4E
1496142459.86,35684,21.94,74284.8,16.29,1.93,6.65,0,*43
1496142461.09,35685,22.0,74286.3,16.29,2.09,6.79,0,*4F
1496142462.31,35686,21.94,74286.5,16.27,2.35,7.11,0,*42
1496142463.5,35687,21.94,74282.5,16.27,2.65,7.29,0,*4D
1496142464.69,35688,21.94,74282.5,16.27,2.31,6.79,0,*47
1496142465.94,35689,22.0,74282.0,16.27,1.37,5.89,0,*4F
1496142467.12,35690,21.94,74284.0,16.23,2.61,7.09,0,*49
1496142468.33,35691,21.94,74286.5,16.23,3.33,7.55,0,*47
1496142469.54,35692,21.94,74290.3,16.23,2.61,6.65,0,*40
1496142470.75,35693,21.94,74290.5,16.23,1.89,5.95,0,*48
1496142471.98,35694,21.94,74288.5,16.21,2.85,6.79,0,*43
1496142473.23,35695,21.94,74286.5,16.21,2.69,6.61,0,*49
1496142474.46,35696,21.94,74286.5,16.19,2.69,6.65,0,*45
1496142475.69,35697,21.94,74282.8,16.19,2.69,6.57,0,*45
1496142476.91,35698,22.0,74286.5,16.15,2.65,6.51,0,*4C
1496142478.14,35699,21.94,74286.0,16.15,2.89,6.65,0,*48
1496142479.37,35700,21.94,74288.0,16.15,3.49,7.23,0,*47
1496142480.58,35701,22.0,74284.5,16.15,3.71,7.41,0,*49
1496142481.79,35702,22.0,74286.3,16.11,3.79,7.41,0,*46
1496142483.01,35703,22.0,74286.8,16.11,3.79,7.19,0,*4A
1496142484.28,35704,22.0,74284.5,16.13,3.67,7.15,0,*4C
1496142485.49,35705,21.94,74286.8,16.11,4.05,7.59,0,*44
1496142486.69,35706,21.94,74282.0,16.11,4.63,8.09,0,*4D
1496142487.89,35707,22.0,74284.5,16.11,4.59,7.97,0,*4D
1496142489.14,35708,21.94,74280.8,16.05,3.97,7.27,0,*49
1496142490.34,35709,21.94,74282.8,16.07,5.07,8.13,0,*4D
1496142491.56,35710,21.94,74284.0,16.05,5.55,8.45,0,*43
1496142492.76,35711,22.0,74284.5,16.05,5.37,8.09,0,*4E
1496142493.99,35712,21.94,74284.3,16.05,5.01,7.55,0,*4E
1496142495.17,35713,21.94,74286.3,16.03,5.19,7.59,0,*4C
1496142496.36,35714,21.94,74286.0,16.01,5.23,7.41,0,*49
1496142497.58,35715,21.94,74284.5,16.01,4.53,6.61,0,*4D
1496142498.8,35716,22.0,74288.0,15.97,4.93,6.83,0,*42
1496142500.0,35717,22.0,74286.8,15.97,5.23,7.01,0,*42
1496142501.19,35718,21.94,74280.3,15.93,5.33,7.09,0,*40
1496142502.43,35719,22.0,74284.5,15.93,5.77,7.27,0,*4D
1496142503.67,35720,21.94,74280.8,15.93,5.93,7.47,0,*4B
1496142504.87,35721,22.0,74282.3,15.89,5.67,7.05,0,*4C
1496142506.06,35722,21.94,74284.0,15.89,6.07,7.33,0,*4F
1496142507.27,35723,22.0,74286.8,15.85,6.29,7.45,0,*4F
1496142508.5,35724,22.0,74288.3,15.85,6.43,7.51,0,*41
1496142509.74,35725,22.0,74290.5,15.83,6.47,7.47,0,*45
1496142510.94,35726,22.0,74286.8,15.83,6.57,7.37,0,*40
1496142512.17,35727,22.0,74284.5,15.83,5.89,6.61,0,*43
1496142513.37,35728,22.0,74284.3,15.83,6.79,7.47,0,*45
1496142514.57,35729,21.94,74280.0,15.79,6.83,7.45,0,*46
1496142515.78,35730,22.0,74286.0,15.79,6.93,7.37,0,*4A
1496142516.97,35731,22.0,74280.3,15.77,6.43,6.83,0,*46
1496142518.2,35732,22.0,74282.5,15.77,6.47,6.91,0,*42
1496142519.46,35733,22.0,74284.3,15.75,6.53,6.91,0,*44
1496142520.69,35734,22.0,74290.8,15.73,6.87,7.27,0,*40
1496142521.94,35735,22.0,74288.8,15.71,6.91,7.23,0,*40
1496142523.14,35736,21.94,74288.0,15.73,6.73,6.93,0,*47